IWY743 TLPC-TBPB

Flight info

Callsign IWY743
Flight time 0h 31m
Altitude 13000
Route URPAL TEDDY DCT
Aircraft AT76/M-SDFGHIRWY/LB1

Departure

Time 2026-05-06 20:02
Airport George F. L. Charles Airport (TLPC)

Arrival

Time 2026-05-06 20:33
Airport Grantley Adams International Airport (TBPB)
Time Latitude Longitude Altitude Speed Heading
2026-05-06 19:30 14.02023 -60.99559 24 ft 0 kts 150°
2026-05-06 19:57 14.02009 -60.99556 24 ft 2 kts 199°
2026-05-06 19:58 14.01982 -60.99589 25 ft 11 kts 228°
2026-05-06 19:58 14.01923 -60.99646 25 ft 12 kts 223°
2026-05-06 19:58 14.01893 -60.99716 26 ft 10 kts 255°
2026-05-06 19:58 14.01873 -60.99794 28 ft 13 kts 255°
2026-05-06 19:59 14.01849 -60.99884 28 ft 13 kts 255°
2026-05-06 19:59 14.01824 -60.99979 28 ft 14 kts 255°
2026-05-06 19:59 14.01805 -61.00076 28 ft 14 kts 266°
2026-05-06 19:59 14.01796 -61.00135 29 ft 1 kts 221°
2026-05-06 20:00 14.01789 -61.00122 29 ft 4 kts 104°
2026-05-06 20:00 14.01791 -61.00103 28 ft 0 kts 75°
2026-05-06 20:01 14.01808 -61.00037 28 ft 35 kts 75°
2026-05-06 20:01 14.01921 -60.99603 26 ft 91 kts 75°
2026-05-06 20:01 14.02155 -60.98827 173 ft 122 kts 59°
2026-05-06 20:02 14.02883 -60.98390 598 ft 135 kts
2026-05-06 20:02 14.03798 -60.98466 1178 ft 134 kts 356°
2026-05-06 20:02 14.04770 -60.98591 1636 ft 142 kts 355°
2026-05-06 20:02 14.05694 -60.98461 2218 ft 135 kts 37°
2026-05-06 20:03 14.06154 -60.97655 2725 ft 134 kts 88°
2026-05-06 20:03 14.05749 -60.96798 3232 ft 145 kts 141°
2026-05-06 20:03 14.04817 -60.96448 3878 ft 135 kts 159°
2026-05-06 20:03 14.03884 -60.96148 4170 ft 156 kts 157°
2026-05-06 20:04 14.02838 -60.95739 4496 ft 167 kts 153°
2026-05-06 20:04 14.01785 -60.95175 4769 ft 178 kts 141°
2026-05-06 20:04 14.00787 -60.94335 4919 ft 193 kts 133°
2026-05-06 20:04 13.99854 -60.93316 5418 ft 192 kts 130°
2026-05-06 20:05 13.98999 -60.92299 6066 ft 183 kts 129°
2026-05-06 20:05 13.98173 -60.91318 6441 ft 180 kts 129°
2026-05-06 20:05 13.97341 -60.90349 6746 ft 182 kts 131°
2026-05-06 20:05 13.96487 -60.89381 7069 ft 183 kts 130°
2026-05-06 20:06 13.95654 -60.88392 7379 ft 183 kts 130°
2026-05-06 20:06 13.94783 -60.87426 7645 ft 185 kts 134°
2026-05-06 20:06 13.93832 -60.86517 7930 ft 187 kts 138°
2026-05-06 20:06 13.92801 -60.85691 8202 ft 189 kts 143°
2026-05-06 20:07 13.91688 -60.84967 8498 ft 190 kts 149°
2026-05-06 20:07 13.90513 -60.84349 8763 ft 191 kts 154°
2026-05-06 20:07 13.89278 -60.83830 8998 ft 192 kts 158°
2026-05-06 20:07 13.88093 -60.83224 9194 ft 191 kts 133°
2026-05-06 20:08 13.87517 -60.82015 9377 ft 189 kts 107°
2026-05-06 20:08 13.87130 -60.80710 9570 ft 191 kts 108°
2026-05-06 20:08 13.86698 -60.79414 9786 ft 192 kts 110°
2026-05-06 20:08 13.86186 -60.78136 10012 ft 194 kts 114°
2026-05-06 20:09 13.85582 -60.76893 10235 ft 195 kts 117°
2026-05-06 20:09 13.84917 -60.75672 10456 ft 196 kts 119°
2026-05-06 20:09 13.84233 -60.74457 10677 ft 197 kts 118°
2026-05-06 20:09 13.83544 -60.73227 10834 ft 201 kts 118°
2026-05-06 20:10 13.82829 -60.71963 10906 ft 208 kts 119°
2026-05-06 20:10 13.82084 -60.70654 10941 ft 216 kts 119°
2026-05-06 20:10 13.81320 -60.69296 10957 ft 223 kts 118°
2026-05-06 20:10 13.80544 -60.67899 10965 ft 227 kts 118°
2026-05-06 20:11 13.79758 -60.66474 10971 ft 231 kts 118°
2026-05-06 20:11 13.78961 -60.65030 10974 ft 233 kts 118°
2026-05-06 20:11 13.78156 -60.63570 10975 ft 236 kts 118°
2026-05-06 20:11 13.77344 -60.62100 10979 ft 237 kts 118°
2026-05-06 20:12 13.76525 -60.60620 10976 ft 239 kts 118°
2026-05-06 20:12 13.75704 -60.59133 10977 ft 239 kts 118°
2026-05-06 20:12 13.74883 -60.57645 10976 ft 240 kts 118°
2026-05-06 20:12 13.74055 -60.56152 10974 ft 240 kts 118°
2026-05-06 20:13 13.73219 -60.54665 10974 ft 241 kts 119°
2026-05-06 20:13 13.72360 -60.53187 10975 ft 241 kts 120°
2026-05-06 20:13 13.71474 -60.51723 10978 ft 242 kts 121°
2026-05-06 20:13 13.70577 -60.50258 10972 ft 242 kts 121°
2026-05-06 20:14 13.69678 -60.48793 10970 ft 242 kts 121°
2026-05-06 20:14 13.68774 -60.47328 10969 ft 242 kts 121°
2026-05-06 20:14 13.67871 -60.45863 10966 ft 243 kts 121°
2026-05-06 20:14 13.66968 -60.44393 10967 ft 243 kts 121°
2026-05-06 20:15 13.66067 -60.42925 10965 ft 243 kts 121°
2026-05-06 20:15 13.65174 -60.41479 10967 ft 243 kts 121°
2026-05-06 20:15 13.64272 -60.40013 10967 ft 243 kts 121°
2026-05-06 20:15 13.63370 -60.38547 10969 ft 243 kts 121°
2026-05-06 20:16 13.62466 -60.37078 10969 ft 242 kts 121°
2026-05-06 20:16 13.61565 -60.35614 10969 ft 242 kts 121°
2026-05-06 20:16 13.60660 -60.34150 10968 ft 243 kts 121°
2026-05-06 20:16 13.59757 -60.32686 10968 ft 243 kts 121°
2026-05-06 20:17 13.58853 -60.31219 10968 ft 243 kts 121°
2026-05-06 20:17 13.57951 -60.29755 10969 ft 242 kts 121°
2026-05-06 20:17 13.57049 -60.28290 10967 ft 242 kts 121°
2026-05-06 20:17 13.56145 -60.26828 10967 ft 243 kts 121°
2026-05-06 20:18 13.55241 -60.25364 10967 ft 242 kts 121°
2026-05-06 20:18 13.54340 -60.23900 10969 ft 242 kts 121°
2026-05-06 20:18 13.53437 -60.22437 10967 ft 242 kts 121°
2026-05-06 20:18 13.52534 -60.20978 10968 ft 242 kts 121°
2026-05-06 20:19 13.51633 -60.19517 10966 ft 242 kts 121°
2026-05-06 20:19 13.50734 -60.18057 10968 ft 242 kts 121°
2026-05-06 20:19 13.49832 -60.16599 10965 ft 242 kts 121°
2026-05-06 20:19 13.48942 -60.15156 10961 ft 242 kts 121°
2026-05-06 20:20 13.48028 -60.13676 10961 ft 242 kts 121°
2026-05-06 20:20 13.47136 -60.12232 10962 ft 242 kts 121°
2026-05-06 20:20 13.46219 -60.10751 10959 ft 243 kts 121°
2026-05-06 20:20 13.45314 -60.09286 10957 ft 243 kts 121°
2026-05-06 20:21 13.44411 -60.07824 10957 ft 243 kts 121°
2026-05-06 20:21 13.43520 -60.06381 10958 ft 243 kts 121°
2026-05-06 20:21 13.42616 -60.04917 10958 ft 242 kts 121°
2026-05-06 20:21 13.41708 -60.03455 10958 ft 243 kts 121°
2026-05-06 20:22 13.40804 -60.01993 10959 ft 242 kts 121°
2026-05-06 20:22 13.39902 -60.00534 10959 ft 242 kts 121°
2026-05-06 20:22 13.38998 -59.99072 10958 ft 242 kts 121°
2026-05-06 20:22 13.38092 -59.97611 10958 ft 242 kts 121°
2026-05-06 20:23 13.37186 -59.96151 10958 ft 243 kts 121°
2026-05-06 20:23 13.36282 -59.94685 10958 ft 243 kts 121°
2026-05-06 20:23 13.35375 -59.93222 10959 ft 243 kts 121°
2026-05-06 20:23 13.34469 -59.91755 10959 ft 243 kts 121°
2026-05-06 20:24 13.33560 -59.90292 10960 ft 243 kts 121°
2026-05-06 20:24 13.32652 -59.88826 10960 ft 243 kts 121°
2026-05-06 20:24 13.31744 -59.87360 10962 ft 244 kts 121°
2026-05-06 20:24 13.30832 -59.85887 10969 ft 245 kts 121°
2026-05-06 20:25 13.30228 -59.84909 10965 ft 245 kts 121°
2026-05-06 20:25 13.29311 -59.83434 10957 ft 245 kts 121°
2026-05-06 20:25 13.28399 -59.81977 10702 ft 243 kts 122°
2026-05-06 20:25 13.27467 -59.80503 10276 ft 247 kts 122°
2026-05-06 20:26 13.26530 -59.79030 9853 ft 246 kts 122°
2026-05-06 20:26 13.25604 -59.77556 9428 ft 245 kts 122°
2026-05-06 20:26 13.24691 -59.76085 9000 ft 244 kts 122°
2026-05-06 20:26 13.23778 -59.74618 8562 ft 243 kts 122°
2026-05-06 20:27 13.22871 -59.73157 8148 ft 242 kts 122°
2026-05-06 20:27 13.21969 -59.71704 7722 ft 241 kts 122°
2026-05-06 20:27 13.21052 -59.70275 7293 ft 237 kts 128°
2026-05-06 20:27 13.19720 -59.69315 6870 ft 236 kts 155°
2026-05-06 20:28 13.18212 -59.68653 6443 ft 236 kts 154°
2026-05-06 20:28 13.16703 -59.67968 6017 ft 237 kts 154°
2026-05-06 20:28 13.15195 -59.67290 5588 ft 236 kts 154°
2026-05-06 20:28 13.13684 -59.66613 5163 ft 237 kts 154°
2026-05-06 20:29 13.12208 -59.65962 4739 ft 221 kts 154°
2026-05-06 20:29 13.10848 -59.65371 4308 ft 205 kts 154°
2026-05-06 20:29 13.09585 -59.64829 3888 ft 194 kts 154°
2026-05-06 20:29 13.08356 -59.64312 3456 ft 188 kts 154°
2026-05-06 20:30 13.07319 -59.63664 3177 ft 162 kts 126°
2026-05-06 20:30 13.05997 -59.61883 2790 ft 157 kts 120°
2026-05-06 20:30 13.05446 -59.60918 2611 ft 157 kts 116°
2026-05-06 20:31 13.05090 -59.59884 2474 ft 153 kts 94°
2026-05-06 20:31 13.05157 -59.58769 2139 ft 164 kts 82°
2026-05-06 20:31 13.05396 -59.57595 1804 ft 170 kts 78°
2026-05-06 20:31 13.05685 -59.56396 1447 ft 175 kts 77°
2026-05-06 20:32 13.05961 -59.55257 1440 ft 150 kts 78°
2026-05-06 20:32 13.06215 -59.54286 1078 ft 134 kts 77°
2026-05-06 20:32 13.06441 -59.53418 793 ft 121 kts 78°
2026-05-06 20:32 13.06653 -59.52573 534 ft 122 kts 78°
2026-05-06 20:33 13.06845 -59.51720 407 ft 121 kts 78°
2026-05-06 20:33 13.07052 -59.50887 253 ft 119 kts 77°
2026-05-06 20:33 13.07240 -59.50108 177 ft 101 kts 79°
2026-05-06 20:33 13.07344 -59.49695 172 ft 24 kts 75°
2026-05-06 20:34 13.07387 -59.49516 173 ft 28 kts 76°
2026-05-06 20:34 13.07441 -59.49296 172 ft 32 kts 77°
2026-05-06 20:34 13.07490 -59.49099 172 ft 25 kts 76°
2026-05-06 20:34 13.07558 -59.48979 172 ft 11 kts 19°
2026-05-06 20:35 13.07629 -59.48992 173 ft 10 kts 346°
2026-05-06 20:35 13.07685 -59.48977 174 ft 8 kts 69°
2026-05-06 20:35 13.07703 -59.48944 174 ft 1 kts
2026-05-06 20:35 13.07729 -59.48951 174 ft 6 kts 344°
2026-05-06 20:36 13.07735 -59.48952 174 ft 0 kts 343°